Time,TemperatureF,DewpointF,PressureIn,WindDirection,WindDirectionDegrees,WindSpeedMPH,WindSpeedGustMPH,Humidity,HourlyPrecipIn,Conditions,Clouds,dailyrainin,SoftwareType,DateUTC
2013-07-06 00:02:00,73.5,72.0,30.08,SW,218,1.0,3.0,94,0.00,,,0.00,weatherlink.com 1.10,2013-07-06 04:02:00,
2013-07-06 00:17:00,73.6,72.0,30.08,WSW,238,1.0,2.0,94,0.00,,,0.00,weatherlink.com 1.10,2013-07-06 04:17:00,
2013-07-06 00:32:00,73.5,72.0,30.08,SW,233,2.0,4.0,94,0.00,,,0.00,weatherlink.com 1.10,2013-07-06 04:32:00,
2013-07-06 00:47:00,73.4,72.0,30.08,SW,225,1.0,3.0,94,0.00,,,0.00,weatherlink.com 1.10,2013-07-06 04:47:00,
2013-07-06 01:03:00,73.5,72.0,30.08,West,264,1.0,4.0,94,0.00,,,0.00,weatherlink.com 1.10,2013-07-06 05:03:00,
2013-07-06 01:17:00,73.5,72.0,30.07,SSW,198,1.0,2.0,94,0.00,,,0.00,weatherlink.com 1.10,2013-07-06 05:17:00,
2013-07-06 01:32:00,73.2,71.0,30.07,SW,221,0.0,2.0,94,0.00,,,0.00,weatherlink.com 1.10,2013-07-06 05:32:00,
2013-07-06 01:47:00,72.6,71.0,30.07,WSW,238,2.0,2.0,93,0.00,,,0.00,weatherlink.com 1.10,2013-07-06 05:47:00,
2013-07-06 02:03:00,71.7,70.0,30.07,SSW,207,1.0,2.0,94,0.00,,,0.00,weatherlink.com 1.10,2013-07-06 06:03:00,
2013-07-06 02:17:00,71.2,70.0,30.07,SSW,212,0.0,1.0,95,0.00,,,0.00,weatherlink.com 1.10,2013-07-06 06:17:00,
2013-07-06 02:32:00,70.7,69.0,30.08,ENE,57,0.0,1.0,95,0.00,,,0.00,weatherlink.com 1.10,2013-07-06 06:32:00,
2013-07-06 02:47:00,72.5,71.0,30.08,SW,236,2.0,4.0,96,0.00,,,0.00,weatherlink.com 1.10,2013-07-06 06:47:00,
2013-07-06 03:03:00,72.3,71.0,30.08,SW,232,2.0,4.0,95,0.00,,,0.00,weatherlink.com 1.10,2013-07-06 07:03:00,
2013-07-06 03:17:00,72.8,72.0,30.08,WSW,249,3.0,6.0,96,0.00,,,0.00,weatherlink.com 1.10,2013-07-06 07:17:00,
2013-07-06 03:32:00,74.0,72.0,30.08,West,280,6.0,7.0,94,0.00,,,0.00,weatherlink.com 1.10,2013-07-06 07:32:00,
2013-07-06 03:47:00,74.2,72.0,30.08,WSW,245,2.0,7.0,93,0.00,,,0.00,weatherlink.com 1.10,2013-07-06 07:47:00,
2013-07-06 04:04:00,74.3,72.0,30.08,WSW,257,2.0,5.0,93,0.00,,,0.00,weatherlink.com 1.10,2013-07-06 08:04:00,
2013-07-06 04:17:00,74.0,72.0,30.08,WSW,255,1.0,6.0,94,0.00,,,0.00,weatherlink.com 1.10,2013-07-06 08:17:00,
2013-07-06 04:32:00,73.8,72.0,30.08,WSW,252,2.0,4.0,94,0.00,,,0.00,weatherlink.com 1.10,2013-07-06 08:32:00,
2013-07-06 04:47:00,73.7,72.0,30.08,WSW,256,1.0,5.0,95,0.00,,,0.00,weatherlink.com 1.10,2013-07-06 08:47:00,
2013-07-06 05:04:00,73.7,72.0,30.08,SW,236,1.0,5.0,95,0.00,,,0.00,weatherlink.com 1.10,2013-07-06 09:04:00,
2013-07-06 05:17:00,73.7,72.0,30.08,WSW,242,2.0,3.0,95,0.00,,,0.00,weatherlink.com 1.10,2013-07-06 09:17:00,
2013-07-06 05:32:00,73.7,72.0,30.08,WSW,249,1.0,3.0,95,0.00,,,0.00,weatherlink.com 1.10,2013-07-06 09:32:00,
2013-07-06 05:47:00,73.0,72.0,30.08,SW,219,2.0,3.0,95,0.00,,,0.00,weatherlink.com 1.10,2013-07-06 09:47:00,
2013-07-06 06:05:00,-999.0,-99.9,30.08,North,-999,-999.0,-999.0,-999,0.00,,,0.00,weatherlink.com 1.10,2013-07-06 10:05:00,
2013-07-06 06:17:00,-999.0,-99.9,30.08,North,-999,-999.0,-999.0,-999,0.00,,,0.00,weatherlink.com 1.10,2013-07-06 10:17:00,
2013-07-06 06:32:00,-999.0,-99.9,30.09,North,-999,-999.0,-999.0,-999,0.00,,,0.00,weatherlink.com 1.10,2013-07-06 10:32:00,
2013-07-06 06:47:00,-999.0,-99.9,30.09,North,-999,-999.0,-999.0,-999,0.00,,,0.00,weatherlink.com 1.10,2013-07-06 10:47:00,
2013-07-06 07:02:00,-999.0,-99.9,30.09,North,-999,-999.0,-999.0,-999,0.00,,,0.00,weatherlink.com 1.10,2013-07-06 11:02:00,
2013-07-06 07:18:00,-999.0,-99.9,30.09,North,-999,-999.0,-999.0,-999,0.00,,,0.00,weatherlink.com 1.10,2013-07-06 11:18:00,
2013-07-06 07:33:00,-999.0,-99.9,30.08,North,-999,-999.0,-999.0,-999,0.00,,,0.00,weatherlink.com 1.10,2013-07-06 11:33:00,
2013-07-06 07:48:00,-999.0,-99.9,30.08,North,-999,-999.0,-999.0,-999,0.00,,,0.00,weatherlink.com 1.10,2013-07-06 11:48:00,
2013-07-06 08:03:00,-999.0,-99.9,30.08,North,-999,-999.0,-999.0,-999,0.00,,,0.00,weatherlink.com 1.10,2013-07-06 12:03:00,
2013-07-06 08:18:00,-999.0,-99.9,30.08,North,-999,-999.0,-999.0,-999,0.00,,,0.00,weatherlink.com 1.10,2013-07-06 12:18:00,
2013-07-06 08:33:00,-999.0,-99.9,30.08,North,-999,-999.0,-999.0,-999,0.00,,,0.00,weatherlink.com 1.10,2013-07-06 12:33:00,
2013-07-06 08:48:00,-999.0,-99.9,30.08,North,-999,-999.0,-999.0,-999,0.00,,,0.00,weatherlink.com 1.10,2013-07-06 12:48:00,
2013-07-06 09:03:00,-999.0,-99.9,30.08,North,-999,-999.0,-999.0,-999,0.00,,,0.00,weatherlink.com 1.10,2013-07-06 13:03:00,
2013-07-06 09:18:00,78.3,74.0,30.07,WSW,245,3.0,9.0,87,0.00,,,0.00,weatherlink.com 1.10,2013-07-06 13:18:00,
2013-07-06 09:33:00,79.8,76.0,30.07,SSW,213,3.0,9.0,87,0.00,,,0.00,weatherlink.com 1.10,2013-07-06 13:33:00,
2013-07-06 09:48:00,80.8,76.0,30.07,SE,136,3.0,13.0,85,0.00,,,0.00,weatherlink.com 1.10,2013-07-06 13:48:00,
2013-07-06 10:03:00,81.6,76.0,30.06,SSW,207,3.0,9.0,83,0.00,,,0.00,weatherlink.com 1.10,2013-07-06 14:03:00,
2013-07-06 10:18:00,81.9,76.0,30.06,SW,232,3.0,7.0,83,0.00,,,0.00,weatherlink.com 1.10,2013-07-06 14:18:00,
2013-07-06 10:33:00,82.4,77.0,30.06,West,276,3.0,12.0,83,0.00,,,0.00,weatherlink.com 1.10,2013-07-06 14:33:00,
2013-07-06 10:48:00,82.9,77.0,30.05,SW,228,4.0,8.0,81,0.00,,,0.00,weatherlink.com 1.10,2013-07-06 14:48:00,
2013-07-06 11:03:00,83.3,77.0,30.05,SSW,193,4.0,11.0,81,0.00,,,0.00,weatherlink.com 1.10,2013-07-06 15:03:00,
2013-07-06 11:18:00,83.6,77.0,30.05,WSW,240,6.0,11.0,80,0.00,,,0.00,weatherlink.com 1.10,2013-07-06 15:18:00,
2013-07-06 11:33:00,84.4,77.0,30.05,WNW,295,3.0,6.0,79,0.00,,,0.00,weatherlink.com 1.10,2013-07-06 15:33:00,
2013-07-06 11:48:00,84.8,77.0,30.05,WNW,284,2.0,7.0,78,0.00,,,0.00,weatherlink.com 1.10,2013-07-06 15:48:00,
2013-07-06 12:04:00,85.1,77.0,30.04,SW,215,1.0,8.0,77,0.00,,,0.00,weatherlink.com 1.10,2013-07-06 16:04:00,
2013-07-06 12:19:00,85.1,77.0,30.04,SSW,208,1.0,6.0,77,0.00,,,0.00,weatherlink.com 1.10,2013-07-06 16:19:00,
2013-07-06 12:34:00,85.1,77.0,30.04,WSW,253,4.0,9.0,77,0.00,,,0.00,weatherlink.com 1.10,2013-07-06 16:34:00,
2013-07-06 12:49:00,85.1,77.0,30.04,WSW,240,2.0,13.0,76,0.00,,,0.00,weatherlink.com 1.10,2013-07-06 16:49:00,
2013-07-06 13:04:00,85.6,77.0,30.04,West,264,6.0,10.0,75,0.00,,,0.00,weatherlink.com 1.10,2013-07-06 17:04:00,
2013-07-06 13:19:00,85.9,76.0,30.03,SSW,198,1.0,5.0,73,0.00,,,0.00,weatherlink.com 1.10,2013-07-06 17:19:00,
2013-07-06 13:34:00,85.9,77.0,30.03,SSW,193,2.0,6.0,74,0.00,,,0.00,weatherlink.com 1.10,2013-07-06 17:34:00,
2013-07-06 14:04:00,86.6,77.0,30.03,WNW,291,4.0,8.0,73,0.00,,,0.00,weatherlink.com 1.10,2013-07-06 18:04:00,
2013-07-06 14:49:00,87.3,77.0,30.02,SSW,200,4.0,10.0,71,0.00,,,0.00,weatherlink.com 1.10,2013-07-06 18:49:00,
2013-07-06 15:19:00,87.3,76.0,30.02,WSW,256,2.0,8.0,70,0.00,,,0.00,weatherlink.com 1.10,2013-07-06 19:19:00,
2013-07-06 15:34:00,86.6,77.0,30.01,WSW,252,4.0,6.0,72,0.00,,,0.00,weatherlink.com 1.10,2013-07-06 19:34:00,
2013-07-06 15:49:00,86.9,76.0,30.01,South,170,2.0,10.0,70,0.00,,,0.00,weatherlink.com 1.10,2013-07-06 19:49:00,
2013-07-06 16:04:00,87.6,76.0,30.01,WSW,245,3.0,8.0,69,0.00,,,0.00,weatherlink.com 1.10,2013-07-06 20:04:00,
2013-07-06 16:34:00,87.8,76.0,30.00,SW,217,2.0,6.0,69,0.00,,,0.00,weatherlink.com 1.10,2013-07-06 20:34:00,
2013-07-06 18:04:00,87.9,75.0,29.98,WSW,252,5.0,6.0,65,0.00,,,0.00,weatherlink.com 1.10,2013-07-06 22:04:00,
2013-07-06 18:34:00,87.1,74.0,29.98,SSW,203,2.0,7.0,65,0.00,,,0.00,weatherlink.com 1.10,2013-07-06 22:34:00,
2013-07-06 19:04:00,81.9,72.0,29.98,WSW,245,3.0,5.0,73,0.00,,,0.00,weatherlink.com 1.10,2013-07-06 23:04:00,
2013-07-06 19:34:00,82.3,74.0,29.98,SSW,211,1.0,4.0,77,0.00,,,0.00,weatherlink.com 1.10,2013-07-06 23:34:00,
2013-07-06 19:49:00,79.4,73.0,29.97,SSW,208,0.0,4.0,81,0.00,,,0.00,weatherlink.com 1.10,2013-07-06 23:49:00,
2013-07-06 20:19:00,77.7,74.0,29.98,SW,236,4.0,5.0,89,0.00,,,0.00,weatherlink.com 1.10,2013-07-07 00:19:00,
2013-07-06 20:34:00,78.0,74.0,29.98,WSW,249,3.0,5.0,88,0.00,,,0.00,weatherlink.com 1.10,2013-07-07 00:34:00,
2013-07-06 20:49:00,77.7,74.0,29.98,SSW,200,1.0,5.0,87,0.00,,,0.00,weatherlink.com 1.10,2013-07-07 00:49:00,
2013-07-06 21:04:00,77.7,74.0,29.98,SSW,195,0.0,4.0,87,0.00,,,0.00,weatherlink.com 1.10,2013-07-07 01:04:00,
2013-07-06 21:20:00,76.7,73.0,29.99,WSW,240,1.0,3.0,88,0.00,,,0.00,weatherlink.com 1.10,2013-07-07 01:20:00,
2013-07-06 22:05:00,75.7,73.0,30.00,WSW,246,0.0,1.0,90,0.00,,,0.00,weatherlink.com 1.10,2013-07-07 02:05:00,
2013-07-06 22:35:00,75.7,73.0,30.00,WSW,240,0.0,2.0,91,0.00,,,0.00,weatherlink.com 1.10,2013-07-07 02:35:00,
2013-07-06 22:50:00,75.4,73.0,30.01,WSW,253,2.0,2.0,92,0.00,,,0.00,weatherlink.com 1.10,2013-07-07 02:50:00,
2013-07-06 23:20:00,74.9,73.0,30.01,WSW,255,0.0,2.0,92,0.00,,,0.00,weatherlink.com 1.10,2013-07-07 03:20:00,
2013-07-06 23:50:00,74.5,72.0,30.01,SW,236,0.0,4.0,93,0.00,,,0.00,weatherlink.com 1.10,2013-07-07 03:50:00,